Flag for Germany Weather past 2 weeks in Lünen, North Rhine-Westphalia, Germany

Now
66 °F

Passing clouds.


Feels Like: 66 °F
Forecast: 48 / 59 °F
Wind: 13 mph from East

Location: Dortmund / Wickede


UV Index: 0 (Low)

Visibility: N/A


Pressure: 29.68 "Hg

Humidity: 40%

Dew point: 41 °F

Location of LünenLocation

Historic Weather in Lünen

°F

Lünen temperature yesterday

Maximum temperature yesterday: 59 °F (at 3:20 PM)
Minimum temperature yesterday: 37 °F (at 6:20 AM)
Average temperature yesterday: 51 °F

Past Weeks' High & Low Weather Summary

 TemperatureHumidityPressure
High70 °F (Apr 7, 5:20 PM)93% (Apr 12, 5:50 AM)30.45 "Hg (Apr 12, 5:50 AM)
Low30 °F (Apr 16, 5:20 AM)29% (Apr 17, 3:50 PM)29.68 "Hg (Apr 20, 5:20 PM)
Average52 °F65%30.07 "Hg
* Reported Apr 5 6:20 PM — Apr 20 6:20 PM, Lünen, Weather by CustomWeather, © 2014

Note: Actual official high and low records may vary slightly from our data, if they occured in-between our weather recording intervals... More about our weather records

Advertising

Historic Weather Conditions — Data for Previous 24 hours

 ConditionsComfort  
Time TempWeatherWind HumidityBarometerVisibility
6:20 PM
Apr 20
66 °FSunny.14 mph40%29.68 "Hg10 mi
5:50 PM66 °FSunny.16 mph40%29.71 "Hg10 mi
5:20 PM68 °FPassing clouds.15 mph38%29.68 "HgN/A
4:50 PM68 °FPassing clouds.14 mph40%29.71 "HgN/A
4:20 PM66 °FSunny.18 mph43%29.71 "Hg10 mi
3:50 PM68 °FPassing clouds.18 mph40%29.71 "HgN/A
3:20 PM68 °FPassing clouds.17 mph43%29.71 "HgN/A
2:50 PM66 °FSunny.20 mph43%29.71 "Hg10 mi
2:20 PM68 °FSunny.18 mph43%29.71 "Hg10 mi
1:50 PM66 °FSunny.20 mph46%29.74 "Hg10 mi
1:20 PM66 °FSunny.22 mph43%29.74 "Hg10 mi
12:50 PM64 °FSunny.21 mph46%29.74 "Hg10 mi
12:20 PM64 °FSunny.22 mph49%29.74 "Hg10 mi
11:50 AM63 °FSunny.15 mph59%29.77 "Hg10 mi
11:20 AM61 °FSunny.15 mph63%29.77 "Hg10 mi
10:50 AM59 °FSunny.13 mph68%29.80 "Hg10 mi
10:20 AM57 °FPassing clouds.13 mph72%29.80 "HgN/A
9:50 AM55 °FPassing clouds.12 mph77%29.80 "HgN/A
9:20 AM54 °FClear.8 mph77%29.80 "Hg6 mi
8:50 AM52 °FClear.8 mph82%29.80 "Hg5 mi
8:20 AM50 °FClear.6 mph88%29.80 "Hg4 mi
7:50 AM48 °FClear.3 mph87%29.83 "Hg4 mi
7:20 AM48 °FClear.7 mph87%29.83 "Hg4 mi
6:50 AM48 °FClear.7 mph87%29.83 "Hg4 mi
6:20 AM48 °FClear.7 mph87%29.83 "Hg10 mi
5:50 AM48 °FClear.6 mph87%29.83 "Hg10 mi
5:20 AM48 °FClear.5 mph87%29.83 "Hg10 mi
9:50 PM
Apr 19
55 °FPassing clouds.10 mph67%29.92 "HgN/A
9:20 PM55 °FPassing clouds.9 mph67%29.95 "HgN/A
8:50 PM55 °FPassing clouds.13 mph63%29.95 "HgN/A
8:20 PM57 °FPassing clouds.12 mph59%29.95 "HgN/A
7:50 PM57 °FSunny.9 mph59%29.95 "Hg10 mi
7:20 PM57 °FSunny.14 mph59%29.95 "Hg10 mi
Weather by CustomWeather, © 2014

See weather overview